Theta_e
345 347 345 346 347 349 350 349 348 346 350 351 349 348 347 346 347 350 347 350 351 349 347 349 348 351 352 347 346 349 349 347 348
346 347 345 346 348 349 349 350 349 347 348 350 350 348 347 347 344 345 343 346 346 348 350 349 350 350 337 347 349 348 351 349 348
346 346 346 346 347 348 349 350 350 349 347 349 350 350 350 347 347 347 345 346 347 347 346 347 346 349 350 346 345 349 349 345 349
345 345 346 346 348 349 350 350 350 350 349 349 351 352 352 350 350 348 343 343 344 347 345 345 346 344 347 350 345 346 347 346 346
345 344 344 346 349 350 350 348 349 351 351 350 348 352 352 351 351 351 351 342 337 339 339 337 338 338 337 348 349 344 346 347 345
345 344 344 345 348 350 350 349 349 351 351 352 352 350 351 352 351 351 350 352 349 343 343 343 342 339 336 337 346 348 349 347 346
344 345 345 345 346 350 351 351 350 351 352 352 353 352 351 351 351 350 349 349 352 350 348 346 346 342 339 337 338 346 350 350 350
344 344 344 346 347 349 351 352 352 352 352 352 353 352 352 352 351 350 349 350 351 350 350 349 349 347 345 343 343 341 342 345 346
338 344 345 345 345 348 350 352 350 350 349 350 352 352 352 352 353 352 352 351 351 352 352 352 352 350 350 350 348 347 349 350 350
341 346 345 344 346 348 350 353 353 348 345 347 349 351 350 353 352 353 354 353 353 352 352 351 351 352 352 351 350 350 349 348 348
344 348 347 347 346 350 350 353 355 353 349 348 347 347 347 349 351 349 351 351 351 353 354 353 352 351 351 351 350 350 350 349 346
340 341 344 347 346 348 353 355 356 358 357 357 355 352 352 354 354 356 356 355 355 355 355 354 354 353 352 352 350 350 350 352 349
337 337 341 342 343 350 355 356 356 358 359 359 358 358 357 357 359 357 357 357 356 355 353 348 345 347 346 345 346 348 349 351 350
339 339 344 345 347 354 357 358 359 361 361 360 360 359 358 357 355 350 346 342 337 335 332 330 329 330 340 342 345 345 345 347 349
344 347 348 350 353 356 359 360 361 362 361 359 358 357 354 346 339 335 336 333 329 329 332 333 335 340 341 342 341 343 343 344 345
348 349 351 353 356 359 359 359 359 358 355 354 350 341 340 338 333 329 328 330 331 332 332 333 333 335 336 338 340 340 343 344 344
352 353 354 356 358 357 356 355 355 354 349 341 339 339 333 330 330 330 330 332 329 330 328 328 329 331 333 335 337 339 339 340 344
351 352 353 355 354 353 352 352 350 345 340 338 335 334 336 335 333 335 334 334 335 334 332 328 328 329 330 331 333 336 337 338 340
351 351 351 351 352 351 349 348 344 342 339 336 336 333 333 336 337 337 337 336 335 333 331 327 326 329 329 329 331 334 336 337 339
350 351 350 351 350 349 347 345 343 339 340 340 338 339 338 336 334 336 334 336 335 334 332 330 325 329 329 328 328 331 334 335 336
Wind_Speed
13 22 18 29 25 24 25 22 19 18 20 20 19 24 23 26 21 18 18 11 14 11 9 8 12 13 10 9 12 10 10 10 9
13 18 21 17 27 24 20 21 20 19 21 19 17 20 25 24 25 23 22 18 14 17 10 9 9 10 16 11 12 10 11 14 11
16 17 19 19 23 22 21 22 20 19 19 18 17 18 18 22 22 22 22 21 19 15 17 12 15 10 9 10 15 14 15 15 12
16 17 18 20 22 19 20 22 21 20 19 16 19 19 20 17 18 17 19 25 25 24 20 21 19 20 19 16 16 15 18 16 14
18 18 19 17 20 19 19 20 22 21 22 19 16 20 23 22 22 20 21 20 24 23 22 20 23 23 21 18 19 18 18 17 16
20 21 19 19 19 21 21 23 23 22 22 21 17 20 19 22 20 22 24 22 19 19 21 20 19 20 21 21 20 17 18 19 18
21 22 23 22 20 22 21 23 25 24 24 23 21 20 19 19 22 20 21 21 23 21 19 21 23 22 21 22 23 24 23 22 21
16 20 22 23 24 24 24 23 25 25 25 25 24 25 22 22 22 22 22 21 21 22 24 22 22 24 24 24 25 25 26 26 27
20 21 23 24 23 25 23 23 23 24 27 24 23 24 26 26 24 23 23 21 23 24 23 24 23 24 24 25 27 26 24 24 26
28 28 27 27 24 26 25 25 24 23 24 23 25 26 25 26 25 26 25 24 23 24 24 25 26 25 24 26 27 28 27 27 26
26 32 30 31 29 28 24 23 25 23 22 24 24 24 24 22 22 20 19 18 17 16 17 18 19 20 22 23 26 27 27 29 27
19 22 23 25 29 27 25 23 23 22 22 22 23 22 20 19 18 13 13 12 11 14 19 20 20 21 23 25 26 26 28 29 28
27 24 39 28 22 18 24 22 21 22 20 17 15 13 11 11 13 16 15 16 16 20 23 25 20 22 24 26 29 27 28 29 28
12 9 27 25 23 22 19 19 20 19 17 12 14 17 18 18 17 15 14 16 17 19 21 23 23 26 23 23 24 23 27 29 27
7 8 13 17 19 18 17 18 19 18 20 21 23 22 17 13 11 10 12 14 15 16 17 18 18 18 20 20 20 21 23 22 28
6 9 13 15 20 22 18 16 17 21 19 14 11 11 9 8 7 8 8 7 7 7 10 14 17 20 21 21 23 23 22 23 25
9 13 16 17 18 17 16 16 18 20 13 12 10 8 6 4 3 1 2 1 5 8 13 16 18 19 21 22 21 17 20 24 20
10 12 14 17 18 18 16 16 15 13 12 10 8 7 6 4 3 3 3 7 10 14 17 20 21 22 20 20 21 21 19 20 19
14 13 14 16 17 15 15 13 12 12 11 11 10 8 7 7 3 2 4 3 9 10 15 20 23 25 21 15 15 18 20 21 20
28 21 20 20 17 16 15 14 13 12 12 12 11 10 11 6 6 6 6 3 4 7 10 18 21 21 23 19 14 14 16 16 19
Wind_Direction
193 169 190 177 168 171 174 182 186 191 214 215 222 210 201 207 205 212 206 211 218 214 247 254 256 227 240 269 267 287 300 292 292
152 163 183 170 162 170 176 182 189 192 207 218 224 217 211 211 215 215 215 216 232 224 224 219 296 260 269 267 262 246 259 272 267
155 170 167 176 171 179 181 188 195 193 212 217 215 212 216 215 216 219 210 209 227 231 231 244 244 273 259 253 244 245 250 256 257
159 167 170 179 170 176 180 184 191 192 206 217 200 204 218 214 226 232 222 217 218 224 226 223 229 238 245 257 260 249 256 258 252
159 167 173 174 164 175 184 184 189 191 199 211 202 204 207 220 220 220 240 233 231 235 243 241 236 245 248 247 254 255 252 256 258
154 161 169 175 178 177 184 190 193 197 203 205 209 204 211 217 225 224 223 234 248 244 241 251 252 252 250 245 252 255 263 268 266
159 160 171 176 180 178 188 193 198 202 208 210 206 210 217 216 225 231 231 225 235 253 254 246 254 258 260 259 251 247 250 255 262
159 164 169 178 180 193 196 197 205 205 211 212 211 207 218 225 233 239 239 232 235 242 250 255 256 259 262 261 262 260 254 252 252
232 176 176 178 186 188 200 205 213 213 217 218 213 213 215 220 225 240 245 244 237 236 242 251 254 258 264 264 264 264 259 254 259
204 181 186 185 188 193 205 199 214 214 212 214 215 219 221 224 229 233 237 242 246 250 248 246 249 253 256 262 266 266 259 255 255
198 178 187 186 184 189 204 204 215 217 212 215 218 222 226 225 230 234 238 239 245 249 254 256 259 262 262 264 266 268 269 262 254
189 191 183 186 185 190 189 188 206 207 208 215 220 221 220 222 229 232 236 245 254 252 253 257 261 265 264 264 267 267 267 262 261
190 185 200 179 174 170 175 179 193 194 199 208 209 205 202 207 213 215 224 226 234 249 258 261 269 269 263 263 265 267 270 264 257
94 152 152 164 167 166 171 176 183 183 181 185 189 197 203 216 225 236 238 245 255 265 277 282 284 281 278 265 266 269 259 263 259
50 101 140 148 152 159 165 174 175 170 176 192 201 211 225 227 231 238 250 276 281 285 288 291 289 286 280 277 270 273 276 274 259
160 157 154 149 152 148 156 163 170 186 198 199 206 198 205 232 255 278 288 305 320 334 324 321 310 296 287 271 261 256 260 257 263
154 159 152 145 150 145 155 164 181 202 198 186 184 196 207 219 240 261 104 69 10 356 355 349 339 322 301 284 271 272 264 263 265
167 160 150 152 153 161 162 172 189 184 177 179 177 166 174 159 161 127 11 4 1 352 352 352 351 343 321 301 280 265 268 266 266
170 168 160 157 164 165 167 172 171 180 179 176 173 169 163 155 211 149 182 5 333 335 339 352 353 352 347 331 299 280 264 259 261
175 172 168 165 166 174 173 177 179 182 176 176 171 155 181 195 204 234 285 298 314 327 345 349 358 13 16 354 333 300 283 271 267